Regional Weather Roundup
Issued by NWS State College, PA

Home | Current Version | Previous Version | Text Only | Print | Product List | Glossary On
Versions: 1 2 3 4 5 6 7 8 9 10 11 12 13 14 15 16 17 18 19 20 21 22 23 24 25 26 27 28 29 30 31 32 33 34 35 36 37 38 39 40 41 42 43 44 45 46 47 48 49 50
000
ASUS41 KCTP 201203
RWRCTP

REGIONAL WEATHER ROUNDUP
NATIONAL WEATHER SERVICE STATE COLLEGE PA
700 AM EST MON NOV 20 2017

Note: "fair" indicates few or no clouds below 12,000 feet with no
significant weather and/or obstructions to visibility.

* = STATION THAT DOES NOT REPORT PRECIPITATION /E.G. RAIN...SNOW...ETC/
    THUNDER OR FOG.

PAZ002>004-007>009-013>016-020>023-029>032-201300-
WESTERN PENNSYLVANIA

CITY           SKY/WX    TMP DP  RH WIND       PRES   REMARKS
ERIE           CLOUDY    32  26  78 SW12      30.04R
MEADVILLE      CLOUDY    28  24  85 SW10      30.05R
FRANKLIN*      CLOUDY    28  22  78 SW13G21   30.05R
NEW CASTLE     FAIR      29  23  78 SW7       30.13R
BEAVER COUNTY  CLEAR    N/A N/A N/A SW9       30.12
BUTLER*        MOCLDY    28  21  75 SW12      30.12R
PITTSBURGH INT PTCLDY    28  21  75 SW9       30.13R
PITTSBURGH     PTCLDY    28  19  69 SW14      30.14R
INDIANA*       CLOUDY    30  23  74 W13G20    30.14R
LATROBE        MOCLDY    28  21  74 W21       30.15R
WASHINGTON CO* CLEAR     27  21  78 SW9       30.19R
$$

PAZ004>006-010>012-017>019-024>028-033>037-041-042-045-046-049>053-201300-
CENTRAL PENNSYLVANIA

CITY           SKY/WX    TMP DP  RH WIND       PRES   REMARKS
BRADFORD       FLURRIES  27  23  85 W8        29.96R
DUBOIS         CLOUDY    27  19  72 W17G24    30.02R WCI  14
CLEARFIELD     CLOUDY    30  21  69 SW8G21    30.04R
JOHNSTOWN      CLOUDY    26  18  71 W16G24    30.05R WCI  14
ALTOONA        PTCLDY    31  19  61 W23       30.08R
STATE COLLEGE  CLOUDY    30  21  69 W16       30.05R
WILLIAMSPORT   CLOUDY    36  25  64 W13G21    30.02R
SELINSGROVE    CLOUDY    36  22  56 W8        30.07R
FT INDIANTOWN  PTCLDY    36  19  49 W12G30    30.06R
CAPITAL CITY   MOCLDY    37  17  44 W16       30.09R
HARRISBURG     PTCLDY    37  23  56 W17       30.08R
YORK           CLEAR     34  19  54 W13G20    30.10R
$$

PAZ038>040-043-044-047-048-054-055-060>062-067>071-201300-
EASTERN PENNSYLVANIA

CITY           SKY/WX    TMP DP  RH WIND       PRES   REMARKS
SCRANTON       CLOUDY    32  26  78 SW9       29.97R
MOUNT POCONO   NOT AVBL
ALLENTOWN      PTCLDY    36  21  54 W12       30.01R
QUAKERTOWN*    MOSUNNY   34  21  60 W9G16     30.03R
READING        CLOUDY    36  24  62 W8        30.05R
LANCASTER      PTCLDY    33  22  63 W12       30.07R
COATESVILLE    SUNNY     32  21  64 W10       30.06R
POTTSTOWN      CLEAR     33  21  61 W8        30.07R
BLUE BELL      CLEAR     34  23  64 W3        30.07R
DOYLESTOWN     PTCLDY    34  21  59 W8G16     30.02R
WILLOW GROVE   NOT AVBL
NORTH PHILA    CLEAR     38  22  52 W13       30.06R
PHILADELPHIA   PTCLDY    37  21  52 W12       30.08R
$$




USA.gov is the U.S. government's official web portal to all federal, state and local government web resources and services.